Regional Weather Roundup
Issued by NWS

Home | Current Version | Previous Version | Text Only | Print | Product List | Glossary On
Versions: 1 2 3 4 5 6 7 8 9 10 11 12 13 14 15 16 17 18 19 20 21 22 23 24 25 26 27 28 29 30 31 32 33 34 35 36 37 38 39 40 41 42 43 44 45 46 47 48 49 50
000
ASUS44 KOUN 291510
RWROK

WEATHER ROUNDUP FOR OKLAHOMA
NATIONAL WEATHER SERVICE NORMAN OK
1000 AM CDT FRI MAY 29 2015

NOTE: "FAIR" INDICATES FEW OR NO CLOUDS BELOW 12,000 FEET WITH NO
      SIGNIFICANT WEATHER AND/OR OBSTRUCTIONS TO VISIBILITY.

OKZ001>007-009>012-014-015-017-291600-
NORTHWEST OKLAHOMA AND THE PANHANDLE

CITY           SKY/WX    TMP DP  RH WIND       PRES   REMARKS
GAGE           CLOUDY    66  60  81 NE6       30.00S
GUYMON         SUNNY     67  55  65 NE14      30.05R
ENID/WOODRING  CLOUDY    72  64  78 SW6       29.96R
$$

OKZ016-021>023-033>039-044-045-291600-
SOUTHWEST OKLAHOMA

CITY           SKY/WX    TMP DP  RH WIND       PRES   REMARKS
LAWTON/REGL    CLOUDY    69  62  78 W6        29.96F
LAWTON/FT SILL CLOUDY    69  64  83 VRB5      29.95F
FREDERICK      CLOUDY    68  63  84 W9        29.95S
CLINTON        CLOUDY    68  61  78 VRB3      30.00R
HOBART         CLOUDY    67  62  84 SW6       29.98R
ALTUS AFB      CLOUDY    67  64  90 SW5       29.97R
$$

OKZ018>020-024>031-291600-
CENTRAL OKLAHOMA

CITY           SKY/WX    TMP DP  RH WIND       PRES   REMARKS
OKLAHOMA CITY  CLOUDY    69  63  81 W7        29.97S
OKC/WILEY POST CLOUDY    70  62  76 SW5       29.97S
OKC/TINKER AFB DRIZZLE   70  64  83 SE2       29.97R
STILLWATER     CLOUDY    69  64  84 CALM      29.97S
GUTHRIE        CLOUDY    70  62  76 W8        29.97R
$$

OKZ008-013-054>072-291600-
NORTHEAST OKLAHOMA

CITY           SKY/WX    TMP DP  RH WIND       PRES   REMARKS
TULSA          LGT RAIN  71  69  93 E7        29.98F
TULSA/JONES    LGT RAIN  70  68  93 E3        29.98S
PONCA CITY     CLOUDY    72  64  76 S5        29.96F
BARTLESVILLE   LGT RAIN  68  68 100 E5        30.00F
MUSKOGEE       CLOUDY    70  68  93 E6        29.99S
$$

OKZ032-040>043-046>053-073>077-291600-
SOUTH CENTRAL/SOUTHEAST OKLAHOMA

CITY           SKY/WX    TMP DP  RH WIND       PRES   REMARKS
ARDMORE/DWNTWN DRIZZLE   68  64  88 CALM      29.96R
MCALESTER      CLOUDY    72  69  90 E6        29.95F
$$




USA.gov is the U.S. government's official web portal to all federal, state and local government web resources and services.